QPF
0.00 0.00 0.00 0.00 0.00 0.00 0.00 0.05 0.03 0.02 0.00 0.00 0.00 0.00 0.00 0.00 0.00 0.00 0.00 0.00 0.02 0.08 0.15 0.17 0.06 0.00 0.00 0.00 0.01 0.00 0.00 0.00 0.00 0.00 0.00 0.02 0.01 0.00 0.00 0.00 0.00 0.00 0.00
0.01 0.00 0.00 0.00 0.01 0.00 0.00 0.00 0.02 0.03 0.00 0.00 0.02 0.00 0.00 0.00 0.00 0.00 0.00 0.00 0.02 0.02 0.05 0.14 0.15 0.04 0.00 0.00 0.00 0.01 0.00 0.00 0.00 0.01 0.00 0.00 0.02 0.00 0.00 0.00 0.00 0.00 0.00
0.00 0.00 0.00 0.00 0.01 0.00 0.01 0.00 0.00 0.00 0.00 0.00 0.00 0.00 0.00 0.00 0.00 0.00 0.00 0.00 0.00 0.01 0.01 0.04 0.07 0.07 0.11 0.04 0.02 0.00 0.05 0.04 0.00 0.00 0.00 0.00 0.01 0.00 0.00 0.00 0.00 0.00 0.00
0.01 0.00 0.00 0.00 0.00 0.03 0.06 0.02 0.00 0.01 0.00 0.00 0.00 0.00 0.00 0.00 0.00 0.00 0.00 0.00 0.00 0.00 0.00 0.01 0.01 0.03 0.05 0.08 0.07 0.03 0.08 0.09 0.07 0.03 0.00 0.00 0.00 0.00 0.00 0.00 0.00 0.00 0.00
0.00 0.00 0.00 0.00 0.00 0.01 0.03 0.01 0.00 0.00 0.00 0.00 0.00 0.00 0.00 0.00 0.00 0.00 0.00 0.00 0.00 0.00 0.00 0.00 0.01 0.01 0.00 0.00 0.03 0.05 0.06 0.04 0.02 0.02 0.05 0.05 0.02 0.01 0.00 0.01 0.00 0.00 0.00
0.00 0.00 0.00 0.00 0.00 0.00 0.01 0.00 0.00 0.00 0.00 0.00 0.00 0.00 0.00 0.00 0.00 0.00 0.00 0.00 0.00 0.00 0.00 0.00 0.00 0.00 0.01 0.01 0.01 0.04 0.03 0.01 0.03 0.09 0.08 0.03 0.04 0.03 0.03 0.02 0.02 0.01 0.00
0.00 0.00 0.00 0.00 0.00 0.01 0.00 0.00 0.00 0.00 0.00 0.00 0.00 0.00 0.00 0.00 0.00 0.00 0.00 0.00 0.00 0.00 0.00 0.00 0.00 0.05 0.02 0.01 0.01 0.01 0.01 0.00 0.00 0.02 0.03 0.04 0.09 0.11 0.10 0.15 0.12 0.09 0.06
0.00 0.00 0.00 0.00 0.00 0.00 0.00 0.00 0.00 0.00 0.00 0.00 0.00 0.00 0.00 0.00 0.00 0.00 0.00 0.00 0.00 0.00 0.00 0.00 0.00 0.01 0.00 0.00 0.01 0.01 0.00 0.00 0.00 0.00 0.01 0.02 0.02 0.04 0.13 0.21 0.17 0.15 0.09
0.00 0.00 0.00 0.00 0.00 0.00 0.00 0.00 0.00 0.00 0.00 0.00 0.00 0.00 0.00 0.00 0.00 0.00 0.00 0.00 0.00 0.00 0.00 0.00 0.00 0.00 0.00 0.00 0.00 0.00 0.00 0.00 0.00 0.00 0.00 0.00 0.00 0.00 0.01 0.01 0.02 0.02 0.05
0.00 0.00 0.00 0.00 0.00 0.00 0.00 0.00 0.00 0.00 0.00 0.00 0.00 0.00 0.00 0.00 0.00 0.00 0.00 0.00 0.00 0.00 0.00 0.00 0.00 0.00 0.00 0.00 0.00 0.00 0.00 0.00 0.00 0.00 0.00 0.00 0.00 0.00 0.00 0.00 0.00 0.00 0.00
0.00 0.00 0.00 0.00 0.00 0.00 0.00 0.00 0.00 0.00 0.00 0.00 0.00 0.00 0.00 0.00 0.00 0.00 0.00 0.00 0.00 0.00 0.00 0.00 0.00 0.00 0.00 0.00 0.00 0.00 0.00 0.00 0.00 0.00 0.00 0.00 0.00 0.00 0.00 0.00 0.00 0.00 0.00
0.00 0.00 0.00 0.00 0.00 0.00 0.00 0.00 0.00 0.00 0.00 0.00 0.00 0.00 0.00 0.00 0.00 0.00 0.00 0.00 0.00 0.00 0.00 0.00 0.00 0.00 0.00 0.00 0.00 0.00 0.00 0.00 0.00 0.00 0.00 0.00 0.00 0.00 0.00 0.00 0.00 0.00 0.00
0.00 0.00 0.00 0.00 0.00 0.00 0.00 0.00 0.00 0.00 0.00 0.00 0.00 0.00 0.00 0.00 0.00 0.00 0.00 0.00 0.00 0.00 0.00 0.00 0.00 0.00 0.00 0.00 0.00 0.00 0.00 0.00 0.00 0.00 0.00 0.00 0.00 0.00 0.00 0.00 0.00 0.00 0.00
0.00 0.00 0.00 0.00 0.00 0.00 0.00 0.00 0.00 0.00 0.00 0.00 0.00 0.00 0.00 0.00 0.00 0.00 0.00 0.00 0.00 0.00 0.00 0.00 0.00 0.00 0.00 0.00 0.00 0.00 0.00 0.00 0.00 0.00 0.00 0.00 0.00 0.00 0.00 0.00 0.00 0.00 0.00
0.00 0.00 0.00 0.00 0.00 0.00 0.00 0.00 0.00 0.00 0.00 0.00 0.00 0.00 0.00 0.00 0.00 0.00 0.00 0.00 0.00 0.00 0.00 0.00 0.00 0.00 0.00 0.00 0.00 0.00 0.00 0.00 0.00 0.00 0.00 0.00 0.00 0.00 0.00 0.00 0.00 0.00 0.00
0.00 0.00 0.00 0.00 0.00 0.00 0.00 0.00 0.00 0.00 0.00 0.00 0.00 0.00 0.00 0.00 0.00 0.00 0.00 0.00 0.00 0.00 0.00 0.00 0.00 0.00 0.00 0.00 0.00 0.00 0.00 0.00 0.00 0.00 0.00 0.00 0.00 0.00 0.00 0.00 0.00 0.00 0.00
0.00 0.00 0.00 0.00 0.00 0.00 0.00 0.00 0.00 0.00 0.00 0.00 0.00 0.00 0.00 0.00 0.00 0.00 0.00 0.00 0.00 0.00 0.00 0.00 0.00 0.00 0.00 0.00 0.00 0.00 0.00 0.00 0.00 0.00 0.00 0.00 0.00 0.00 0.00 0.00 0.00 0.00 0.00
0.00 0.00 0.00 0.00 0.00 0.00 0.00 0.00 0.00 0.00 0.00 0.00 0.00 0.00 0.00 0.00 0.00 0.00 0.00 0.00 0.00 0.00 0.00 0.00 0.00 0.00 0.00 0.00 0.00 0.00 0.00 0.00 0.00 0.00 0.00 0.00 0.00 0.00 0.00 0.00 0.00 0.00 0.00
0.00 0.00 0.00 0.00 0.00 0.00 0.00 0.00 0.00 0.00 0.00 0.00 0.00 0.00 0.00 0.00 0.00 0.00 0.00 0.00 0.00 0.00 0.00 0.00 0.00 0.00 0.00 0.00 0.00 0.00 0.00 0.00 0.00 0.00 0.00 0.00 0.00 0.00 0.00 0.00 0.00 0.00 0.00
0.00 0.00 0.00 0.00 0.00 0.00 0.00 0.00 0.00 0.00 0.00 0.00 0.00 0.00 0.00 0.00 0.00 0.00 0.00 0.00 0.00 0.00 0.00 0.00 0.00 0.00 0.00 0.00 0.00 0.00 0.00 0.00 0.00 0.00 0.00 0.00 0.00 0.00 0.00 0.00 0.00 0.00 0.00
0.00 0.00 0.00 0.00 0.00 0.00 0.00 0.00 0.00 0.00 0.00 0.00 0.00 0.00 0.00 0.00 0.00 0.00 0.00 0.00 0.00 0.00 0.00 0.00 0.00 0.00 0.00 0.00 0.00 0.00 0.00 0.00 0.00 0.00 0.00 0.00 0.00 0.00 0.00 0.00 0.00 0.00 0.00
0.00 0.00 0.00 0.00 0.00 0.00 0.00 0.00 0.00 0.00 0.00 0.00 0.00 0.00 0.00 0.01 0.01 0.00 0.00 0.00 0.00 0.00 0.00 0.00 0.00 0.00 0.00 0.00 0.00 0.00 0.00 0.00 0.00 0.00 0.00 0.00 0.00 0.00 0.00 0.00 0.00 0.00 0.00
0.00 0.00 0.00 0.00 0.00 0.00 0.00 0.00 0.00 0.00 0.00 0.00 0.00 0.00 0.00 0.04 0.01 0.00 0.00 0.00 0.00 0.00 0.00 0.00 0.00 0.00 0.01 0.02 0.01 0.00 0.00 0.01 0.00 0.01 0.00 0.00 0.00 0.00 0.00 0.00 0.00 0.00 0.00
0.00 0.00 0.00 0.00 0.00 0.00 0.00 0.00 0.00 0.00 0.00 0.00 0.00 0.00 0.00 0.01 0.01 0.00 0.01 0.00 0.00 0.00 0.00 0.00 0.00 0.02 0.01 0.01 0.00 0.00 0.02 0.01 0.00 0.00 0.00 0.00 0.00 0.00 0.00 0.00 0.00 0.00 0.00
0.00 0.00 0.00 0.00 0.00 0.00 0.00 0.00 0.00 0.00 0.00 0.00 0.00 0.00 0.00 0.01 0.01 0.00 0.02 0.00 0.00 0.00 0.00 0.00 0.00 0.00 0.00 0.00 0.00 0.00 0.02 0.00 0.00 0.00 0.00 0.00 0.00 0.00 0.00 0.00 0.00 0.00 0.00
0.00 0.00 0.00 0.00 0.00 0.00 0.00 0.00 0.00 0.00 0.00 0.00 0.00 0.00 0.00 0.00 0.00 0.01 0.03 0.00 0.00 0.00 0.00 0.00 0.00 0.00 0.00 0.00 0.00 0.00 0.02 0.00 0.00 0.00 0.00 0.00 0.00 0.00 0.00 0.00 0.00 0.00 0.00
MSLP
1019.16 1019.22 1019.21 1019.16 1019.23 1019.53 1019.55 1019.37 1019.65 1019.53 1019.44 1019.30 1019.34 1019.27 1019.60 1019.57 1019.81 1019.82 1019.96 1020.68 1020.93 1021.08 1021.14 1021.34 1021.44 1021.54 1021.74 1021.93 1022.05 1022.17 1022.40 1022.60 1022.71 1022.83 1022.93 1023.04 1023.16 1023.25 1023.36 1023.46 1023.55 1023.61 1023.61
1019.22 1019.14 1019.19 1019.22 1019.35 1019.35 1019.22 1019.59 1019.27 1019.56 1019.46 1019.49 1019.43 1019.28 1019.27 1019.45 1019.87 1019.87 1019.82 1020.21 1020.85 1020.97 1021.14 1021.19 1021.40 1021.42 1021.57 1021.83 1022.04 1022.09 1022.30 1022.60 1022.79 1022.82 1022.93 1023.03 1023.13 1023.21 1023.28 1023.32 1023.43 1023.51 1023.54
1019.02 1019.20 1019.06 1019.01 1019.10 1019.20 1019.35 1019.39 1019.59 1019.57 1019.88 1019.87 1019.85 1019.40 1019.33 1019.50 1019.47 1019.76 1019.79 1019.96 1020.28 1020.83 1020.95 1021.06 1021.12 1021.27 1021.51 1021.54 1021.88 1022.00 1022.20 1022.28 1022.54 1022.72 1022.94 1023.12 1023.13 1023.14 1023.17 1023.24 1023.33 1023.38 1023.41
1018.87 1018.98 1018.98 1018.91 1019.05 1019.18 1019.29 1019.25 1019.85 1019.61 1019.74 1020.04 1020.06 1019.62 1019.31 1019.45 1019.86 1019.73 1019.78 1020.03 1020.21 1020.18 1020.71 1020.87 1021.04 1021.23 1021.46 1021.57 1021.70 1021.78 1022.06 1022.32 1022.31 1022.53 1022.76 1022.92 1022.98 1023.03 1023.07 1023.12 1023.19 1023.21 1023.23
1018.69 1018.83 1018.73 1018.80 1019.17 1019.10 1019.34 1019.36 1019.59 1019.71 1019.81 1019.88 1019.85 1019.80 1019.72 1019.77 1019.75 1019.43 1019.80 1020.13 1020.30 1020.36 1020.34 1020.98 1021.00 1021.17 1021.28 1021.31 1021.46 1021.73 1021.80 1021.95 1022.17 1022.47 1022.48 1022.63 1022.80 1022.81 1022.90 1022.97 1023.02 1023.06 1023.04
1018.39 1018.65 1018.65 1018.83 1019.08 1019.09 1019.24 1019.37 1019.67 1019.93 1019.98 1020.06 1019.90 1019.98 1020.01 1019.90 1019.82 1019.67 1019.76 1020.04 1020.28 1020.39 1020.46 1020.74 1020.78 1020.83 1021.21 1021.23 1021.34 1021.52 1021.66 1021.78 1021.90 1022.05 1022.24 1022.27 1022.37 1022.46 1022.64 1022.69 1022.84 1022.80 1022.74
1018.03 1018.36 1018.39 1018.73 1019.01 1019.15 1019.30 1019.59 1019.72 1019.93 1020.01 1020.17 1020.01 1020.00 1020.12 1020.22 1020.21 1020.19 1020.26 1020.04 1020.20 1020.29 1020.55 1020.78 1020.78 1021.09 1021.14 1021.43 1021.50 1021.54 1021.64 1021.66 1021.69 1021.83 1021.93 1021.93 1022.07 1022.18 1022.21 1022.40 1022.66 1022.67 1022.52
1017.58 1017.84 1018.09 1018.38 1018.70 1018.98 1019.31 1019.62 1019.82 1019.79 1020.01 1020.30 1020.01 1019.98 1019.76 1020.09 1020.28 1020.49 1020.79 1020.38 1020.44 1020.50 1020.69 1020.94 1021.07 1021.26 1021.22 1021.17 1021.59 1021.79 1021.80 1021.80 1021.87 1021.88 1021.96 1022.00 1022.10 1022.16 1022.40 1022.65 1022.33 1022.74 1022.43
1017.21 1017.48 1017.76 1018.09 1018.49 1018.76 1018.96 1019.42 1019.69 1019.92 1019.81 1020.42 1020.63 1020.25 1019.98 1019.68 1020.18 1020.60 1020.87 1020.75 1020.85 1020.75 1020.89 1021.06 1021.14 1021.34 1021.49 1021.49 1021.67 1021.85 1021.99 1022.01 1022.08 1022.11 1022.17 1022.26 1022.29 1022.34 1022.41 1022.51 1022.55 1022.57 1022.47
1016.83 1017.12 1017.52 1017.90 1018.23 1018.38 1018.84 1019.18 1019.47 1019.75 1019.98 1019.98 1020.64 1020.75 1020.65 1020.43 1019.98 1020.02 1020.63 1020.84 1021.01 1020.92 1021.17 1021.15 1021.15 1021.31 1021.53 1021.52 1021.99 1022.11 1022.21 1022.24 1022.26 1022.37 1022.43 1022.50 1022.53 1022.52 1022.52 1022.52 1022.54 1022.50 1022.52
1016.54 1016.79 1017.23 1017.51 1017.86 1018.17 1018.60 1018.97 1019.32 1019.70 1019.89 1019.86 1020.09 1020.41 1020.62 1020.63 1020.67 1020.18 1019.80 1020.32 1020.76 1020.84 1020.92 1021.11 1021.10 1021.12 1021.40 1021.48 1021.59 1021.91 1022.06 1022.14 1022.28 1022.34 1022.42 1022.50 1022.54 1022.54 1022.50 1022.49 1022.53 1022.52 1022.44
1016.15 1016.50 1016.85 1017.13 1017.43 1017.77 1018.31 1018.60 1019.04 1019.48 1019.82 1019.98 1020.05 1020.11 1019.97 1019.89 1019.95 1020.06 1019.99 1020.08 1019.95 1020.39 1020.66 1020.77 1021.07 1021.13 1021.11 1021.21 1021.47 1021.88 1022.08 1022.12 1022.21 1022.35 1022.44 1022.47 1022.47 1022.43 1022.40 1022.39 1022.32 1022.26 1022.23
1015.36 1015.75 1016.29 1016.72 1017.07 1017.35 1017.75 1018.15 1018.71 1019.16 1019.64 1019.75 1019.96 1019.85 1019.99 1019.85 1019.90 1019.94 1019.99 1020.03 1019.95 1020.21 1020.30 1020.36 1020.47 1020.90 1021.12 1021.29 1021.32 1021.78 1021.79 1021.88 1021.91 1021.99 1022.09 1022.28 1022.34 1022.33 1022.32 1022.24 1022.17 1022.10 1022.06
1014.73 1015.15 1015.60 1015.87 1016.33 1016.88 1017.43 1017.85 1018.30 1018.85 1019.28 1019.50 1019.75 1019.81 1019.70 1019.82 1020.03 1020.00 1019.80 1019.86 1020.00 1020.21 1020.44 1020.27 1020.36 1020.41 1020.71 1020.82 1020.68 1021.17 1021.12 1021.51 1021.54 1021.54 1021.58 1021.71 1021.85 1021.91 1021.88 1021.83 1021.78 1021.78 1021.74
1014.13 1014.64 1015.07 1015.39 1015.67 1016.25 1016.84 1017.42 1017.92 1018.56 1019.02 1019.25 1019.47 1019.70 1019.72 1019.73 1019.85 1019.86 1020.02 1019.92 1019.67 1019.54 1019.59 1019.94 1019.95 1020.26 1020.32 1020.38 1020.42 1020.55 1020.71 1020.88 1021.33 1021.41 1021.25 1021.21 1021.21 1021.25 1021.31 1021.31 1021.29 1021.25 1021.28
1013.64 1014.04 1014.46 1014.88 1015.30 1015.85 1016.45 1017.12 1017.58 1018.09 1018.54 1018.81 1019.04 1019.37 1019.54 1019.41 1019.55 1019.66 1019.68 1019.77 1019.81 1019.61 1019.31 1019.53 1019.79 1020.15 1020.28 1020.47 1020.51 1020.59 1020.47 1020.86 1021.15 1021.29 1021.30 1021.40 1021.09 1020.96 1020.91 1020.87 1020.86 1020.85 1020.91
1012.70 1013.34 1013.85 1014.28 1014.71 1015.29 1015.95 1016.50 1016.95 1017.31 1017.75 1018.13 1018.56 1018.84 1018.98 1019.17 1019.11 1019.35 1019.53 1019.54 1019.56 1019.64 1019.31 1019.30 1019.74 1020.15 1020.49 1020.46 1020.38 1020.52 1020.59 1020.67 1020.42 1020.71 1020.64 1020.53 1020.59 1020.78 1020.69 1020.52 1020.49 1020.58 1020.55
1011.77 1012.33 1012.99 1013.51 1014.05 1014.53 1015.10 1015.68 1016.17 1016.50 1016.87 1017.26 1017.72 1018.14 1018.29 1018.58 1018.86 1019.07 1019.16 1019.19 1019.14 1019.49 1019.39 1019.50 1019.57 1019.88 1020.22 1020.19 1020.28 1020.34 1020.18 1020.13 1020.35 1020.23 1020.66 1020.81 1020.91 1020.91 1020.77 1020.55 1020.44 1020.30 1020.34
1010.79 1011.38 1012.02 1012.56 1013.20 1013.72 1014.25 1014.87 1015.18 1015.61 1016.00 1016.35 1016.79 1017.16 1017.34 1017.84 1018.30 1018.29 1018.62 1018.75 1018.90 1019.24 1019.53 1019.32 1019.28 1019.58 1019.79 1019.93 1020.07 1020.13 1020.08 1019.89 1020.02 1020.29 1020.32 1020.37 1020.24 1020.17 1020.26 1020.36 1020.30 1020.15 1020.00
1009.83 1010.42 1010.96 1011.56 1012.24 1012.86 1013.35 1013.82 1014.29 1014.73 1015.17 1015.45 1015.89 1016.21 1016.49 1016.90 1017.26 1017.83 1018.24 1018.50 1018.51 1018.57 1018.79 1019.11 1019.01 1019.07 1019.38 1019.72 1019.86 1019.68 1019.58 1020.03 1019.73 1020.27 1020.09 1019.90 1019.96 1020.08 1020.53 1020.40 1020.13 1019.79 1019.60
1008.29 1009.05 1009.75 1010.49 1011.12 1011.84 1012.23 1012.70 1013.25 1013.67 1014.16 1014.55 1014.95 1015.28 1015.62 1015.97 1016.44 1016.90 1017.13 1017.58 1017.93 1018.20 1018.26 1018.21 1018.41 1018.56 1018.55 1018.75 1018.83 1018.89 1019.14 1019.45 1019.87 1019.84 1019.07 1018.87 1018.94 1019.19 1019.14 1019.43 1019.43 1019.31 1019.15
1007.18 1007.94 1008.47 1009.09 1009.70 1010.16 1010.68 1011.49 1011.90 1012.41 1012.95 1013.43 1013.73 1014.28 1014.59 1015.11 1015.64 1016.04 1016.35 1016.64 1017.03 1017.35 1017.47 1017.55 1017.53 1017.82 1018.07 1018.35 1018.35 1018.74 1019.03 1019.20 1018.39 1018.80 1019.07 1018.58 1018.85 1018.63 1018.49 1018.50 1018.78 1019.05 1018.95
1006.00 1006.58 1007.17 1007.70 1008.14 1008.72 1009.37 1010.12 1010.67 1011.12 1011.77 1012.09 1012.54 1013.12 1013.71 1014.04 1014.82 1015.11 1015.62 1015.93 1016.38 1016.66 1016.74 1016.98 1017.04 1017.38 1017.65 1018.11 1018.37 1018.62 1018.84 1018.96 1018.78 1018.74 1019.06 1018.28 1018.47 1018.52 1018.10 1017.82 1018.41 1018.81 1018.75
1004.50 1005.09 1005.75 1006.39 1007.06 1007.47 1008.10 1008.90 1009.78 1010.44 1010.48 1010.90 1011.54 1012.05 1012.57 1013.17 1013.89 1014.33 1014.96 1015.52 1015.68 1015.82 1016.42 1016.60 1016.67 1016.79 1017.21 1017.47 1017.99 1018.28 1018.50 1018.72 1018.80 1018.72 1019.15 1018.23 1018.16 1018.06 1017.92 1017.86 1017.99 1018.20 1018.34
1003.50 1004.03 1004.77 1005.59 1005.90 1006.14 1007.05 1008.04 1009.19 1009.50 1009.39 1009.96 1010.57 1011.03 1011.61 1012.24 1012.56 1013.25 1014.06 1014.52 1014.79 1015.20 1015.58 1015.94 1016.34 1016.89 1017.43 1017.63 1017.54 1017.78 1017.94 1018.12 1017.82 1017.68 1018.16 1018.19 1017.87 1018.10 1018.19 1017.78 1017.58 1017.76 1017.91
1002.21 1003.01 1003.42 1003.88 1004.66 1005.16 1006.04 1007.00 1007.97 1008.08 1008.48 1009.12 1009.84 1010.26 1010.69 1010.77 1011.52 1012.37 1013.41 1013.86 1014.34 1014.41 1015.11 1015.54 1016.24 1016.80 1017.10 1017.36 1018.08 1017.67 1017.39 1017.38 1017.51 1017.75 1017.97 1018.26 1017.87 1017.90 1017.73 1017.56 1017.68 1017.60 1017.14
Thickness
5761 5761 5760 5759 5758 5757 5756 5757 5755 5754 5753 5753 5752 5752 5749 5748 5744 5743 5742 5736 5733 5731 5730 5728 5727 5726 5725 5723 5721 5721 5719 5716 5714 5713 5713 5713 5712 5712 5710 5709 5708 5708 5707
5762 5762 5761 5760 5759 5759 5759 5757 5758 5755 5754 5752 5752 5751 5751 5749 5745 5744 5743 5739 5733 5732 5730 5729 5728 5726 5725 5723 5721 5720 5717 5712 5708 5710 5710 5711 5711 5711 5710 5710 5709 5708 5708
5764 5763 5762 5761 5761 5760 5758 5757 5755 5754 5752 5750 5750 5752 5751 5749 5748 5745 5743 5741 5738 5734 5732 5730 5730 5728 5726 5724 5721 5719 5716 5714 5710 5710 5708 5708 5708 5709 5710 5709 5708 5708 5708
5766 5764 5763 5762 5760 5759 5758 5757 5753 5755 5753 5750 5747 5751 5752 5750 5747 5745 5743 5740 5738 5738 5735 5732 5731 5729 5726 5724 5722 5720 5717 5715 5713 5711 5708 5707 5706 5705 5705 5706 5706 5707 5708
5767 5765 5763 5762 5760 5759 5757 5757 5755 5754 5751 5750 5750 5749 5748 5747 5746 5747 5743 5739 5737 5736 5736 5733 5732 5729 5728 5726 5724 5720 5719 5717 5715 5712 5709 5707 5703 5703 5703 5705 5706 5707 5707
5769 5766 5764 5762 5760 5760 5759 5757 5754 5752 5751 5748 5748 5745 5745 5744 5744 5744 5742 5739 5736 5735 5734 5732 5731 5730 5727 5726 5725 5722 5720 5718 5716 5713 5712 5710 5708 5705 5704 5705 5705 5707 5708
5772 5768 5766 5763 5760 5761 5760 5756 5754 5751 5749 5747 5744 5742 5741 5741 5739 5738 5737 5738 5737 5736 5733 5730 5730 5727 5726 5724 5723 5721 5720 5718 5717 5715 5713 5712 5710 5707 5706 5703 5703 5703 5707
5775 5772 5769 5766 5763 5762 5759 5756 5753 5751 5748 5746 5741 5738 5732 5734 5735 5734 5733 5736 5735 5733 5731 5728 5726 5724 5724 5723 5720 5718 5718 5716 5714 5714 5713 5713 5711 5709 5706 5704 5701 5700 5704
5777 5775 5772 5769 5765 5762 5761 5757 5754 5750 5747 5742 5739 5737 5728 5726 5728 5729 5728 5731 5730 5730 5728 5726 5724 5722 5720 5720 5717 5715 5714 5713 5712 5710 5709 5708 5708 5707 5705 5703 5702 5703 5701
5779 5777 5774 5769 5767 5764 5760 5758 5755 5752 5748 5744 5739 5737 5735 5732 5724 5719 5725 5726 5726 5727 5724 5723 5722 5721 5718 5717 5714 5712 5710 5709 5707 5706 5704 5703 5702 5702 5702 5701 5700 5699 5698
5780 5779 5775 5772 5768 5765 5762 5758 5754 5751 5750 5748 5743 5738 5733 5730 5726 5724 5721 5722 5724 5725 5724 5721 5720 5719 5717 5715 5713 5711 5710 5708 5705 5703 5702 5700 5699 5698 5697 5697 5696 5696 5695
5783 5779 5776 5773 5770 5766 5762 5760 5756 5753 5750 5748 5745 5742 5740 5735 5731 5728 5724 5723 5725 5724 5723 5722 5719 5717 5716 5714 5711 5707 5705 5703 5702 5700 5699 5698 5697 5695 5695 5693 5693 5693 5692
5785 5784 5778 5774 5772 5768 5765 5762 5758 5755 5750 5748 5745 5743 5741 5740 5738 5734 5729 5724 5723 5724 5723 5724 5722 5718 5714 5710 5708 5705 5704 5702 5701 5700 5699 5696 5694 5692 5691 5690 5689 5688 5688
5788 5786 5782 5779 5776 5771 5766 5763 5761 5757 5753 5751 5746 5744 5743 5740 5736 5733 5730 5725 5717 5716 5716 5717 5721 5718 5714 5712 5712 5708 5704 5700 5699 5699 5697 5693 5691 5689 5687 5686 5686 5685 5684
5790 5786 5784 5781 5779 5775 5770 5765 5763 5758 5755 5752 5749 5745 5743 5741 5738 5736 5731 5729 5724 5715 5715 5718 5717 5717 5714 5712 5711 5707 5701 5698 5694 5691 5692 5692 5691 5687 5684 5682 5680 5679 5679
5791 5788 5786 5782 5780 5777 5773 5767 5765 5761 5757 5755 5752 5747 5743 5743 5739 5736 5734 5731 5727 5723 5717 5722 5718 5715 5711 5708 5705 5701 5699 5695 5690 5686 5684 5681 5683 5682 5680 5678 5677 5675 5672
5795 5790 5787 5784 5781 5778 5774 5770 5768 5766 5762 5758 5754 5749 5746 5743 5741 5737 5733 5731 5726 5723 5718 5721 5717 5713 5707 5704 5701 5697 5692 5687 5685 5684 5684 5682 5679 5675 5675 5675 5673 5670 5668
5798 5794 5790 5786 5783 5781 5778 5774 5771 5770 5766 5762 5758 5753 5749 5746 5740 5737 5734 5730 5727 5722 5717 5708 5712 5708 5703 5701 5698 5694 5692 5687 5682 5680 5674 5669 5665 5661 5660 5661 5662 5662 5659
5800 5796 5793 5790 5786 5783 5781 5777 5776 5773 5770 5767 5763 5758 5755 5749 5741 5740 5735 5730 5727 5721 5714 5712 5708 5706 5702 5699 5693 5688 5685 5683 5678 5672 5668 5662 5660 5658 5654 5650 5649 5649 5651
5800 5797 5796 5793 5789 5786 5784 5782 5779 5776 5773 5771 5767 5764 5760 5754 5748 5740 5734 5729 5726 5721 5717 5709 5706 5703 5698 5692 5687 5683 5680 5674 5672 5661 5658 5657 5653 5647 5639 5638 5638 5638 5638
5809 5804 5800 5797 5794 5790 5790 5787 5783 5780 5776 5773 5769 5766 5763 5759 5752 5746 5741 5735 5728 5720 5715 5712 5705 5700 5696 5690 5684 5683 5675 5668 5660 5654 5655 5651 5646 5638 5635 5631 5628 5628 5628
5816 5810 5807 5804 5801 5801 5799 5791 5791 5787 5783 5778 5773 5768 5766 5760 5753 5748 5743 5739 5731 5721 5715 5711 5706 5698 5692 5687 5683 5675 5666 5656 5656 5652 5644 5642 5636 5633 5630 5624 5618 5615 5615
5823 5818 5814 5812 5810 5809 5803 5798 5794 5793 5788 5785 5780 5773 5766 5764 5754 5752 5744 5737 5729 5723 5719 5713 5704 5695 5687 5679 5673 5665 5659 5652 5648 5645 5637 5636 5628 5624 5624 5621 5613 5605 5603
5831 5826 5821 5818 5813 5813 5808 5802 5795 5790 5792 5789 5782 5776 5770 5763 5756 5751 5743 5736 5731 5726 5715 5709 5701 5696 5687 5680 5670 5663 5656 5648 5642 5636 5628 5628 5624 5618 5615 5611 5606 5600 5594
5833 5829 5823 5817 5816 5818 5810 5801 5791 5789 5790 5786 5781 5777 5771 5764 5761 5752 5743 5735 5728 5720 5714 5707 5699 5689 5680 5674 5667 5660 5651 5642 5638 5634 5628 5622 5618 5610 5604 5601 5597 5591 5584
5836 5830 5827 5825 5820 5817 5809 5801 5792 5791 5784 5781 5778 5774 5769 5771 5761 5751 5741 5731 5722 5718 5709 5702 5693 5683 5677 5668 5658 5654 5650 5641 5633 5625 5623 5613 5610 5603 5596 5593 5585 5580 5578